Time,TemperatureF,DewpointF,PressureIn,WindDirection,WindDirectionDegrees,WindSpeedMPH,WindSpeedGustMPH,Humidity,HourlyPrecipIn,Conditions,Clouds,dailyrainin,SoftwareType,DateUTC
2013-03-02 00:01:00,32.0,20.0,30.23,SW,217,1.0,2.0,60,0.00,,,0.00,,2013-03-02 07:01:00,
2013-03-02 00:11:00,32.0,20.0,30.23,SW,217,1.0,2.0,60,0.00,,,0.00,,2013-03-02 07:11:00,
2013-03-02 00:21:00,32.0,20.0,30.23,SW,217,2.0,2.0,60,0.00,,,0.00,,2013-03-02 07:21:00,
2013-03-02 00:32:00,32.0,20.0,30.24,SW,217,2.0,3.0,61,0.00,,,0.00,,2013-03-02 07:32:00,
2013-03-02 00:42:00,32.0,20.0,30.24,SW,217,2.0,3.0,61,0.00,,,0.00,,2013-03-02 07:42:00,
2013-03-02 00:52:00,32.0,23.0,30.24,SW,217,0.0,4.0,68,0.00,,,0.00,,2013-03-02 07:52:00,
2013-03-02 01:01:00,31.0,21.0,30.25,SW,217,0.0,2.0,66,0.00,,,0.00,,2013-03-02 08:01:00,
2013-03-02 01:11:00,31.0,21.0,30.25,SW,217,0.0,2.0,66,0.00,,,0.00,,2013-03-02 08:11:00,
2013-03-02 01:21:00,32.0,22.0,30.24,SW,217,1.0,2.0,66,0.00,,,0.00,,2013-03-02 08:21:00,
2013-03-02 01:32:00,31.0,22.0,30.25,SW,217,2.0,3.0,68,0.00,,,0.00,,2013-03-02 08:32:00,
2013-03-02 01:42:00,31.0,22.0,30.25,SW,217,2.0,3.0,68,0.00,,,0.00,,2013-03-02 08:42:00,
2013-03-02 01:52:00,31.0,21.0,30.25,SW,217,0.0,2.0,66,0.00,,,0.00,,2013-03-02 08:52:00,
2013-03-02 02:01:00,31.0,21.0,30.25,SW,217,0.0,2.0,67,0.00,,,0.00,,2013-03-02 09:01:00,
2013-03-02 02:11:00,31.0,21.0,30.25,SW,217,0.0,2.0,67,0.00,,,0.00,,2013-03-02 09:11:00,
2013-03-02 02:21:00,31.0,21.0,30.24,SW,217,0.0,2.0,66,0.00,,,0.00,,2013-03-02 09:21:00,
2013-03-02 02:32:00,31.0,20.0,30.23,SW,217,1.0,2.0,63,0.00,,,0.00,,2013-03-02 09:32:00,
2013-03-02 02:42:00,31.0,20.0,30.23,SW,217,1.0,2.0,63,0.00,,,0.00,,2013-03-02 09:42:00,
2013-03-02 02:52:00,31.0,20.0,30.23,SW,217,3.0,3.0,62,0.00,,,0.00,,2013-03-02 09:52:00,
2013-03-02 03:01:00,31.0,19.0,30.23,SW,217,0.0,2.0,61,0.00,,,0.00,,2013-03-02 10:01:00,
2013-03-02 03:15:00,31.0,19.0,30.23,SW,217,0.0,2.0,61,0.00,,,0.00,,2013-03-02 10:15:00,
2013-03-02 03:22:00,31.0,19.0,30.22,SW,217,2.0,2.0,61,0.00,,,0.00,,2013-03-02 10:22:00,
2013-03-02 03:32:00,31.0,19.0,30.21,SW,217,1.0,2.0,61,0.00,,,0.00,,2013-03-02 10:32:00,
2013-03-02 03:42:00,31.0,19.0,30.21,SW,217,1.0,2.0,61,0.00,,,0.00,,2013-03-02 10:42:00,
2013-03-02 03:52:00,31.0,19.0,30.21,SW,217,1.0,3.0,61,0.00,,,0.00,,2013-03-02 10:52:00,
2013-03-02 04:01:00,31.0,22.0,30.23,SW,217,1.0,3.0,68,0.00,,,0.00,,2013-03-02 11:01:00,
2013-03-02 04:11:00,31.0,22.0,30.23,SW,217,1.0,3.0,68,0.00,,,0.00,,2013-03-02 11:11:00,
2013-03-02 04:21:00,31.0,21.0,30.23,SW,217,2.0,3.0,66,0.00,,,0.00,,2013-03-02 11:21:00,
2013-03-02 04:32:00,31.0,20.0,30.22,SW,217,1.0,3.0,64,0.00,,,0.00,,2013-03-02 11:32:00,
2013-03-02 04:42:00,31.0,20.0,30.22,SW,217,1.0,3.0,64,0.00,,,0.00,,2013-03-02 11:42:00,
2013-03-02 04:52:00,31.0,21.0,30.22,SW,217,0.0,3.0,65,0.00,,,0.00,,2013-03-02 11:52:00,
2013-03-02 05:02:00,31.0,20.0,30.22,SW,217,2.0,3.0,62,0.00,,,0.00,,2013-03-02 12:02:00,
2013-03-02 05:11:00,31.0,20.0,30.22,SW,217,2.0,3.0,62,0.00,,,0.00,,2013-03-02 12:11:00,
2013-03-02 05:21:00,31.0,21.0,30.22,SW,217,1.0,4.0,67,0.00,,,0.00,,2013-03-02 12:21:00,
2013-03-02 05:33:00,31.0,21.0,30.23,SW,217,0.0,3.0,65,0.00,,,0.00,,2013-03-02 12:33:00,
2013-03-02 05:43:00,31.0,21.0,30.23,SW,217,0.0,3.0,65,0.00,,,0.00,,2013-03-02 12:43:00,
2013-03-02 05:53:00,31.0,21.0,30.23,SW,217,0.0,2.0,65,0.00,,,0.00,,2013-03-02 12:53:00,
2013-03-02 06:01:00,32.0,20.0,30.21,SW,216,0.0,2.0,62,0.00,,,0.00,,2013-03-02 13:01:00,
2013-03-02 06:11:00,32.0,20.0,30.21,SW,216,0.0,2.0,62,0.00,,,0.00,,2013-03-02 13:11:00,
2013-03-02 06:22:00,32.0,20.0,30.21,SW,217,0.0,2.0,61,0.00,,,0.00,,2013-03-02 13:22:00,
2013-03-02 06:32:00,32.0,20.0,30.22,SW,217,0.0,3.0,62,0.00,,,0.00,,2013-03-02 13:32:00,
2013-03-02 06:42:00,32.0,20.0,30.22,SW,217,0.0,3.0,62,0.00,,,0.00,,2013-03-02 13:42:00,
2013-03-02 06:52:00,32.0,21.0,30.22,SW,217,0.0,2.0,63,0.00,,,0.00,,2013-03-02 13:52:00,
2013-03-02 07:01:00,32.0,20.0,30.23,SW,217,0.0,2.0,61,0.00,,,0.00,,2013-03-02 14:01:00,
2013-03-02 07:11:00,32.0,20.0,30.23,SW,217,0.0,2.0,61,0.00,,,0.00,,2013-03-02 14:11:00,
2013-03-02 07:21:00,32.0,21.0,30.24,SW,217,0.0,3.0,63,0.00,,,0.00,,2013-03-02 14:21:00,
2013-03-02 07:32:00,33.0,21.0,30.24,SW,217,2.0,3.0,61,0.00,,,0.00,,2013-03-02 14:32:00,
2013-03-02 07:42:00,33.0,21.0,30.24,SW,217,2.0,3.0,61,0.00,,,0.00,,2013-03-02 14:42:00,
2013-03-02 07:52:00,34.0,21.0,30.22,SW,217,0.0,3.0,58,0.00,,,0.00,,2013-03-02 14:52:00,
2013-03-02 08:02:00,35.0,22.0,30.23,SW,217,1.0,2.0,58,0.00,,,0.00,,2013-03-02 15:02:00,
2013-03-02 08:11:00,35.0,22.0,30.23,SW,217,1.0,2.0,58,0.00,,,0.00,,2013-03-02 15:11:00,
2013-03-02 08:21:00,35.0,22.0,30.23,SW,217,0.0,2.0,58,0.00,,,0.00,,2013-03-02 15:21:00,
2013-03-02 08:32:00,36.0,22.0,30.24,SW,217,0.0,2.0,56,0.00,,,0.00,,2013-03-02 15:32:00,
2013-03-02 08:42:00,36.0,22.0,30.24,SW,217,0.0,2.0,56,0.00,,,0.00,,2013-03-02 15:42:00,
2013-03-02 08:52:00,37.0,21.0,30.23,SW,223,0.0,3.0,53,0.00,,,0.00,,2013-03-02 15:52:00,
2013-03-02 09:01:00,40.0,22.0,30.24,SW,225,1.0,1.0,49,0.00,,,0.00,,2013-03-02 16:01:00,
2013-03-02 09:11:00,40.0,22.0,30.24,SW,225,1.0,1.0,49,0.00,,,0.00,,2013-03-02 16:11:00,
2013-03-02 09:21:00,41.0,22.0,30.23,SW,229,2.0,3.0,47,0.00,,,0.00,,2013-03-02 16:21:00,
2013-03-02 09:32:00,42.0,23.0,30.22,West,261,0.0,3.0,47,0.00,,,0.00,,2013-03-02 16:32:00,
2013-03-02 09:42:00,42.0,23.0,30.22,West,261,0.0,3.0,47,0.00,,,0.00,,2013-03-02 16:42:00,
2013-03-02 09:52:00,44.0,23.0,30.24,West,261,0.0,3.0,43,0.00,,,0.00,,2013-03-02 16:52:00,
2013-03-02 10:01:00,47.0,24.0,30.22,West,260,0.0,2.0,40,0.00,,,0.00,,2013-03-02 17:01:00,
2013-03-02 10:11:00,47.0,24.0,30.22,West,260,0.0,2.0,40,0.00,,,0.00,,2013-03-02 17:11:00,
2013-03-02 10:21:00,48.0,24.0,30.23,West,268,3.0,3.0,38,0.00,,,0.00,,2013-03-02 17:21:00,
2013-03-02 10:32:00,48.0,23.0,30.22,NNW,337,0.0,3.0,37,0.00,,,0.00,,2013-03-02 17:32:00,
2013-03-02 10:42:00,48.0,23.0,30.22,NNW,337,0.0,3.0,37,0.00,,,0.00,,2013-03-02 17:42:00,
2013-03-02 10:52:00,50.0,23.0,30.22,NE,36,0.0,5.0,35,0.00,,,0.00,,2013-03-02 17:52:00,
2013-03-02 11:01:00,50.0,23.0,30.22,NE,36,2.0,3.0,35,0.00,,,0.00,,2013-03-02 18:01:00,
2013-03-02 11:11:00,50.0,23.0,30.22,NE,36,2.0,3.0,35,0.00,,,0.00,,2013-03-02 18:11:00,
2013-03-02 11:22:00,49.0,24.0,30.23,NNE,24,1.0,6.0,37,0.00,,,0.00,,2013-03-02 18:22:00,
2013-03-02 11:32:00,49.0,21.0,30.23,NNE,15,0.0,5.0,33,0.00,,,0.00,,2013-03-02 18:32:00,
2013-03-02 11:42:00,49.0,21.0,30.23,NNE,15,0.0,5.0,33,0.00,,,0.00,,2013-03-02 18:42:00,
2013-03-02 11:52:00,49.0,21.0,30.22,NNE,32,0.0,2.0,33,0.00,,,0.00,,2013-03-02 18:52:00,
2013-03-02 12:01:00,51.0,20.0,30.20,ESE,113,1.0,4.0,29,0.00,,,0.00,,2013-03-02 19:01:00,
2013-03-02 12:11:00,51.0,20.0,30.20,ESE,113,1.0,4.0,29,0.00,,,0.00,,2013-03-02 19:11:00,
2013-03-02 12:22:00,50.0,21.0,30.19,ENE,68,0.0,4.0,32,0.00,,,0.00,,2013-03-02 19:22:00,
2013-03-02 12:32:00,51.0,21.0,30.18,West,268,0.0,3.0,31,0.00,,,0.00,,2013-03-02 19:32:00,
2013-03-02 12:42:00,51.0,21.0,30.18,West,268,0.0,3.0,31,0.00,,,0.00,,2013-03-02 19:42:00,
2013-03-02 12:52:00,51.0,21.0,30.17,NE,50,0.0,3.0,30,0.00,,,0.00,,2013-03-02 19:52:00,
2013-03-02 13:01:00,50.0,21.0,30.16,ENE,68,0.0,2.0,31,0.00,,,0.00,,2013-03-02 20:01:00,
2013-03-02 13:11:00,50.0,21.0,30.16,ENE,68,0.0,2.0,31,0.00,,,0.00,,2013-03-02 20:11:00,
2013-03-02 13:22:00,50.0,20.0,30.16,SSW,206,2.0,6.0,30,0.00,,,0.00,,2013-03-02 20:22:00,
2013-03-02 13:32:00,51.0,22.0,30.15,SSE,148,1.0,4.0,32,0.00,,,0.00,,2013-03-02 20:32:00,
2013-03-02 13:42:00,51.0,22.0,30.15,SSE,148,1.0,4.0,32,0.00,,,0.00,,2013-03-02 20:42:00,
2013-03-02 13:52:00,51.0,24.0,30.14,SW,217,0.0,3.0,35,0.00,,,0.00,,2013-03-02 20:52:00,
2013-03-02 14:02:00,53.0,21.0,30.15,SW,234,0.0,3.0,28,0.00,,,0.00,,2013-03-02 21:02:00,
2013-03-02 14:11:00,53.0,21.0,30.15,SW,234,0.0,3.0,28,0.00,,,0.00,,2013-03-02 21:11:00,
2013-03-02 14:22:00,54.0,23.0,30.14,South,177,0.0,4.0,30,0.00,,,0.00,,2013-03-02 21:22:00,
2013-03-02 14:32:00,54.0,24.0,30.14,WSW,242,0.0,3.0,31,0.00,,,0.00,,2013-03-02 21:32:00,
2013-03-02 14:42:00,54.0,24.0,30.14,WSW,242,0.0,3.0,31,0.00,,,0.00,,2013-03-02 21:42:00,
2013-03-02 14:52:00,55.0,23.0,30.13,WSW,244,0.0,4.0,28,0.00,,,0.00,,2013-03-02 21:52:00,
2013-03-02 15:02:00,53.0,27.0,30.13,West,265,0.0,1.0,36,0.00,,,0.00,,2013-03-02 22:02:00,
2013-03-02 15:11:00,53.0,27.0,30.13,West,265,0.0,1.0,36,0.00,,,0.00,,2013-03-02 22:11:00,
2013-03-02 15:22:00,51.0,27.0,30.12,NNW,344,0.0,2.0,39,0.00,,,0.00,,2013-03-02 22:22:00,
2013-03-02 15:32:00,50.0,26.0,30.14,North,358,0.0,3.0,39,0.00,,,0.00,,2013-03-02 22:32:00,
2013-03-02 15:42:00,50.0,26.0,30.14,North,358,0.0,3.0,39,0.00,,,0.00,,2013-03-02 22:42:00,
2013-03-02 15:52:00,51.0,27.0,30.12,North,2,0.0,3.0,39,0.00,,,0.00,,2013-03-02 22:52:00,
2013-03-02 16:01:00,51.0,24.0,30.12,SW,229,0.0,3.0,35,0.00,,,0.00,,2013-03-02 23:01:00,
2013-03-02 16:11:00,51.0,27.0,30.13,WSW,240,0.0,1.0,39,0.00,,,0.00,,2013-03-02 23:11:00,
2013-03-02 16:21:00,51.0,27.0,30.13,WSW,240,0.0,1.0,39,0.00,,,0.00,,2013-03-02 23:21:00,
2013-03-02 16:32:00,50.0,26.0,30.13,WSW,238,0.0,2.0,39,0.00,,,0.00,,2013-03-02 23:32:00,
2013-03-02 16:42:00,50.0,26.0,30.13,WSW,238,0.0,2.0,39,0.00,,,0.00,,2013-03-02 23:42:00,
2013-03-02 16:52:00,50.0,29.0,30.13,WSW,239,0.0,1.0,44,0.00,,,0.00,,2013-03-02 23:52:00,
2013-03-02 17:02:00,49.0,29.0,30.12,WSW,238,0.0,1.0,45,0.00,,,0.00,,2013-03-03 00:02:00,
2013-03-02 17:11:00,49.0,29.0,30.12,WSW,238,0.0,1.0,45,0.00,,,0.00,,2013-03-03 00:11:00,
2013-03-02 17:22:00,48.0,28.0,30.11,WSW,239,0.0,1.0,45,0.00,,,0.00,,2013-03-03 00:22:00,
2013-03-02 17:32:00,48.0,28.0,30.12,WSW,239,0.0,0.0,46,0.00,,,0.00,,2013-03-03 00:32:00,
2013-03-02 17:42:00,48.0,28.0,30.12,WSW,239,0.0,0.0,46,0.00,,,0.00,,2013-03-03 00:42:00,
2013-03-02 17:52:00,47.0,27.0,30.12,WSW,239,0.0,1.0,45,0.00,,,0.00,,2013-03-03 00:52:00,
2013-03-02 18:01:00,46.0,27.0,30.11,WSW,238,0.0,1.0,48,0.00,,,0.00,,2013-03-03 01:01:00,
2013-03-02 18:11:00,46.0,27.0,30.11,WSW,238,0.0,1.0,48,0.00,,,0.00,,2013-03-03 01:11:00,
2013-03-02 18:21:00,44.0,28.0,30.12,WSW,239,1.0,1.0,52,0.00,,,0.00,,2013-03-03 01:21:00,
2013-03-02 18:32:00,43.0,27.0,30.12,WSW,239,0.0,1.0,52,0.00,,,0.00,,2013-03-03 01:32:00,
2013-03-02 18:42:00,43.0,27.0,30.12,WSW,239,0.0,1.0,52,0.00,,,0.00,,2013-03-03 01:42:00,
2013-03-02 18:52:00,42.0,27.0,30.11,WSW,238,0.0,2.0,54,0.00,,,0.00,,2013-03-03 01:52:00,
2013-03-02 19:01:00,41.0,27.0,30.11,WSW,238,1.0,2.0,56,0.00,,,0.00,,2013-03-03 02:01:00,
2013-03-02 19:11:00,41.0,27.0,30.11,WSW,238,1.0,2.0,56,0.00,,,0.00,,2013-03-03 02:11:00,
2013-03-02 19:21:00,41.0,27.0,30.13,WSW,239,2.0,3.0,58,0.00,,,0.00,,2013-03-03 02:21:00,
2013-03-02 19:31:00,41.0,27.0,30.12,WSW,239,1.0,2.0,56,0.00,,,0.00,,2013-03-03 02:31:00,
2013-03-02 19:42:00,41.0,27.0,30.12,WSW,239,1.0,2.0,56,0.00,,,0.00,,2013-03-03 02:42:00,
2013-03-02 19:52:00,41.0,26.0,30.11,WSW,238,1.0,2.0,54,0.00,,,0.00,,2013-03-03 02:52:00,
2013-03-02 20:01:00,41.0,27.0,30.10,WSW,238,1.0,2.0,56,0.00,,,0.00,,2013-03-03 03:01:00,
2013-03-02 20:11:00,41.0,27.0,30.10,WSW,238,1.0,2.0,56,0.00,,,0.00,,2013-03-03 03:11:00,
2013-03-02 20:21:00,40.0,27.0,30.09,WSW,238,2.0,3.0,60,0.00,,,0.00,,2013-03-03 03:21:00,
2013-03-02 20:31:00,39.0,25.0,30.10,WSW,240,1.0,2.0,58,0.00,,,0.00,,2013-03-03 03:31:00,
2013-03-02 20:42:00,39.0,25.0,30.10,WSW,240,1.0,2.0,58,0.00,,,0.00,,2013-03-03 03:42:00,
2013-03-02 20:52:00,40.0,25.0,30.10,WSW,238,2.0,2.0,55,0.00,,,0.00,,2013-03-03 03:52:00,
2013-03-02 21:01:00,40.0,25.0,30.09,WSW,239,2.0,3.0,55,0.00,,,0.00,,2013-03-03 04:01:00,
2013-03-02 21:11:00,40.0,25.0,30.09,WSW,239,2.0,3.0,55,0.00,,,0.00,,2013-03-03 04:11:00,
2013-03-02 21:21:00,40.0,25.0,30.08,WSW,238,2.0,2.0,55,0.00,,,0.00,,2013-03-03 04:21:00,
2013-03-02 21:31:00,40.0,25.0,30.08,WSW,238,1.0,3.0,54,0.00,,,0.00,,2013-03-03 04:31:00,
2013-03-02 21:42:00,40.0,25.0,30.08,WSW,238,1.0,3.0,54,0.00,,,0.00,,2013-03-03 04:42:00,
2013-03-02 21:52:00,40.0,26.0,30.07,WSW,238,0.0,2.0,56,0.00,,,0.00,,2013-03-03 04:52:00,
2013-03-02 22:02:00,40.0,25.0,30.07,WSW,239,0.0,1.0,55,0.00,,,0.00,,2013-03-03 05:02:00,
2013-03-02 22:11:00,40.0,25.0,30.07,WSW,239,0.0,1.0,55,0.00,,,0.00,,2013-03-03 05:11:00,
2013-03-02 22:22:00,40.0,25.0,30.06,WSW,238,1.0,2.0,55,0.00,,,0.00,,2013-03-03 05:22:00,
2013-03-02 22:32:00,40.0,25.0,30.06,WSW,239,2.0,2.0,54,0.00,,,0.00,,2013-03-03 05:32:00,
2013-03-02 22:42:00,40.0,25.0,30.06,WSW,239,2.0,2.0,54,0.00,,,0.00,,2013-03-03 05:42:00,
2013-03-02 22:52:00,40.0,25.0,30.06,WSW,239,1.0,2.0,54,0.00,,,0.00,,2013-03-03 05:52:00,
2013-03-02 23:02:00,40.0,25.0,30.04,WSW,238,0.0,3.0,54,0.00,,,0.00,,2013-03-03 06:02:00,
2013-03-02 23:11:00,40.0,25.0,30.04,WSW,238,0.0,3.0,54,0.00,,,0.00,,2013-03-03 06:11:00,
2013-03-02 23:21:00,40.0,26.0,30.03,WSW,238,2.0,3.0,56,0.00,,,0.00,,2013-03-03 06:21:00,
2013-03-02 23:31:00,39.0,26.0,30.01,WSW,239,0.0,2.0,59,0.00,,,0.00,,2013-03-03 06:31:00,
2013-03-02 23:42:00,39.0,26.0,30.01,WSW,239,0.0,2.0,59,0.00,,,0.00,,2013-03-03 06:42:00,
2013-03-02 23:52:00,38.0,25.0,30.01,WSW,238,2.0,3.0,60,0.00,,,0.00,,2013-03-03 06:52:00,